[[{"header":{"parameterUnit":"m.s-1","parameterCategory":1,"la1":30.2991,"la2":30.254,"lo1":-89.0895,"lo2":-89.0444,"dy":0.0017,"dx":0.0017,"nx":28,"ny":28,"refTime":"2023-08-06T03:00:00:Z","depth":0,"parameterNumber":2,"parameterNumberName":"U-component_of_WINDS"},"data":[0,0,0,0,0,0,0,0,0,0,0,0,0,0,0,0,0,0,0,0,0,0,0,0,0,0,0,0,0,0,0,0,0,0,0,0,0,0,0,0,0,0,0,0,0,0,0,0,0,0,0,0,0,0,0,0,0,0,2.1614,2.1615,0,2.1713,2.1715,2.1716,2.1727,2.1726,2.1725,2.1724,2.183,2.1834,2.1837,0,0,0,0,0,0,0,0,0,0,0,0,0,2.1439,2.1443,2.1614,2.1615,2.1617,2.1713,2.1715,2.1716,2.1727,2.1726,2.1724,2.1723,2.1829,2.1833,2.1838,0,0,0,0,0,0,0,0,0,0,0,0,0,2.1525,2.1444,2.1614,2.1633,2.1636,2.1713,2.1715,2.1716,2.1727,2.1726,2.1724,2.1723,2.1827,2.1833,2.1838,2.1904,0,0,2.1856,2.1858,0,0,0,0,0,0,0,0,2.152,2.1531,2.1629,2.1632,2.1635,2.1706,2.1692,2.1779,2.1727,2.1693,2.1724,2.1722,2.179,2.1799,2.1821,2.1909,2.1913,2.1856,2.1859,2.1862,2.1863,0,0,0,0,0,0,0,2.1514,2.1527,2.1654,2.1631,2.1635,2.1639,2.165,2.1709,2.1749,2.1696,2.1697,2.1708,2.1792,2.1815,2.1823,2.1915,2.1856,2.1861,2.1864,2.1867,2.2063,2.2065,0,0,0,0,0,0,2.1504,2.1522,2.165,2.1656,2.1573,2.1644,2.1655,2.1685,2.1748,2.1756,2.1709,2.1708,2.1806,2.1817,2.1827,2.1908,2.1862,2.1867,2.187,2.2061,2.2063,2.2065,0,0,0,0,0,0,2.15,2.1515,2.1646,2.159,2.1607,2.1648,2.1681,2.1688,2.1711,2.1758,2.1766,2.1726,2.1806,2.1819,2.1885,2.1912,2.187,2.1875,2.2059,2.2062,2.2064,2.2071,0,0,0,0,0,0,2.1495,2.1514,2.1537,2.159,2.161,2.17,2.1683,2.1691,2.1721,2.172,2.1776,2.1784,2.1806,2.1876,2.189,2.1919,2.1879,2.2057,2.206,2.2063,2.2068,2.2073,2.2078,0,0,0,0,0,2.1489,2.1536,2.1538,2.1554,2.164,2.1702,2.1713,2.1736,2.1723,2.1748,2.1779,2.1782,2.1907,2.1883,2.1899,2.193,2.2055,2.2059,2.2063,2.2066,2.2072,2.2078,0,0,0,0,0,0,2.1486,2.1543,2.1546,2.1612,2.1652,2.1703,2.1735,2.1741,2.1787,2.1785,2.1813,2.1825,2.189,2.1917,2.1888,2.1997,2.198,2.1988,2.1977,2.1983,2.1988,2.198,2.1884,0,0,0,0,0,2.1493,2.1537,2.1585,2.1638,2.1658,2.1693,2.1721,2.1735,2.1778,2.1796,2.1831,2.1874,2.1923,2.1955,2.2003,2.2073,2.2086,2.2103,2.2107,2.2111,2.2117,2.2157,2.2165,2.2079,2.2079,2.2079,0,0,2.1508,2.1545,2.1571,2.1639,2.1671,2.1718,2.1707,2.1757,2.1792,2.1804,2.1867,2.1895,2.1945,2.2013,2.2045,2.2037,2.2144,2.2116,2.2119,2.2123,2.2162,2.217,2.2177,2.2082,2.2081,2.2081,0,0,2.1559,2.159,2.1638,2.1672,2.1721,2.1744,2.1756,2.1808,2.1826,2.189,2.19,2.1944,2.2027,2.2063,2.2092,2.2159,2.2164,2.2174,2.2198,2.2237,2.2244,2.225,2.2274,2.2282,2.218,2.218,2.218,0,2.1571,2.164,2.1663,2.1712,2.1742,2.1754,2.1804,2.1836,2.1899,2.192,2.1911,2.2017,2.2052,2.2129,2.2145,2.2169,2.2184,2.2167,2.2241,2.2247,2.2253,2.2277,2.2285,2.2181,2.2181,2.218,2.218,0,2.1653,2.1701,2.1734,2.1794,2.1828,2.1878,2.191,2.1942,2.1954,2.198,2.2046,2.2088,2.2145,2.2165,2.2177,2.2244,2.2238,2.2235,2.2218,2.2262,2.2284,2.2293,2.2182,2.2181,2.2181,2.2181,0,0,2.1703,2.1775,2.1787,2.1815,2.1871,2.191,2.1961,2.2016,2.2043,2.2087,2.2132,2.2203,2.2201,2.2234,2.2251,2.2285,2.2336,2.2278,2.2279,2.2287,2.2413,2.2415,2.2424,2.234,2.2342,2.2344,2.2409,0,2.176,2.1849,2.1872,2.1949,2.1994,2.2008,2.2053,2.2093,2.2119,2.2163,2.2192,2.2242,2.2235,2.2255,2.229,2.2322,2.2362,2.2318,2.2383,2.2385,2.2368,2.2436,2.2438,2.2497,2.2418,2.2419,2.242,0,2.1837,2.1881,2.1962,2.2014,2.2034,2.2074,2.2127,2.2168,2.2215,2.2232,2.227,2.2284,2.234,2.2321,2.2399,2.2369,2.2398,2.2418,2.2421,2.2427,2.2404,2.2443,2.2516,2.2525,2.2434,2.2433,2.2432,0,2.1865,2.1945,2.2004,2.2028,2.209,2.2118,2.2145,2.2191,2.2223,2.227,2.2291,2.2345,2.2374,2.2416,2.2445,2.2429,2.2521,2.2505,2.2537,2.2537,2.2555,2.2553,2.2632,2.2575,2.2575,2.2575,2.2574,0,2.1925,2.1974,2.2018,2.2054,2.211,2.2138,2.2193,2.2222,2.2263,2.2306,2.2322,2.2363,2.2399,2.2446,2.2469,2.2531,2.2544,2.256,2.2565,2.2558,2.2556,2.2576,2.2572,2.2577,2.2576,2.2576,2.2576,0,2.1964,2.1996,2.2061,2.2115,2.213,2.2169,2.2216,2.2253,2.228,2.2334,2.2349,2.2392,2.2447,2.2481,2.2552,2.2568,2.2635,2.264,2.2619,2.2621,2.2651,2.2648,2.2746,2.276,2.2693,2.2694,2.2695,0,2.2,2.2038,2.2096,2.2126,2.2153,2.2201,2.2234,2.2264,2.2298,2.2355,2.2386,2.2442,2.2488,2.2577,2.2615,2.267,2.2675,2.2706,2.2683,2.2675,2.2675,2.2672,2.2676,2.2709,2.2709,2.271,2.271,0,2.206,2.2074,2.212,2.2172,2.221,2.2253,2.2295,2.2319,2.2357,2.2394,2.245,2.2486,2.2559,2.2615,2.2673,2.2703,2.2713,2.2717,2.2728,2.272,2.2706,2.2713,2.2628,2.2715,2.2714,2.2714,2.2714,2.2713,2.2099,2.2133,2.218,2.2231,2.2266,2.2306,2.2343,2.2375,2.2422,2.2482,2.2498,2.2557,2.2606,2.2685,2.2717,2.2765,2.276,2.2775,2.2779,2.2782,2.2782,2.2699,2.2776,2.2776,2.2775,2.2775,2.2775,0,2.2159,2.219,2.2237,2.2296,2.2336,2.2342,2.239,2.2424,2.2476,2.252,2.2565,2.2631,2.2686,2.2729,2.2786,2.2816,2.2822,2.283,2.2828,2.2834,2.2783,2.2768,2.2824,2.2824,2.2824,2.2824,2.2824,2.2824,2.2195,2.2254,2.2274,2.2352,2.2384,2.2441,2.2468,2.2505,2.254,2.2612,2.2658,2.2686,2.273,2.2791,2.2842,2.2853,2.2873,2.288,2.2892,2.2843,2.2838,2.2833,2.2819,2.2884,2.2884,2.294,2.294,2.2941]},{"header":{"parameterUnit":"m.s-1","parameterCategory":1,"la1":30.2991,"la2":30.254,"lo1":-89.0895,"lo2":-89.0444,"dy":0.0017,"dx":0.0017,"nx":28,"ny":28,"refTime":"2023-08-06T03:00:00:Z","depth":0,"parameterNumber":3,"parameterNumberName":"V-component_of_WINDS"},"data":[0,0,0,0,0,0,0,0,0,0,0,0,0,0,0,0,0,0,0,0,0,0,0,0,0,0,0,0,0,0,0,0,0,0,0,0,0,0,0,0,0,0,0,0,0,0,0,0,0,0,0,0,0,0,0,0,0,0,4.4205,4.4206,0,4.4283,4.4284,4.4285,4.4301,4.4301,4.43,4.43,4.4373,4.4375,4.4378,0,0,0,0,0,0,0,0,0,0,0,0,0,4.4061,4.4063,4.4205,4.4206,4.4207,4.4283,4.4284,4.4285,4.4302,4.4301,4.43,4.43,4.4372,4.4375,4.4378,0,0,0,0,0,0,0,0,0,0,0,0,0,4.4129,4.4064,4.4205,4.4224,4.4227,4.4283,4.4284,4.4285,4.4302,4.4301,4.43,4.4299,4.4371,4.4375,4.4378,4.4418,0,0,4.439,4.4391,0,0,0,0,0,0,0,0,4.4125,4.4135,4.422,4.4223,4.4226,4.4282,4.426,4.433,4.4302,4.4273,4.43,4.4299,4.4343,4.4349,4.4365,4.4421,4.4425,4.439,4.4392,4.4394,4.4395,0,0,0,0,0,0,0,4.4121,4.4131,4.4236,4.4222,4.4225,4.4226,4.4235,4.4273,4.4311,4.4276,4.4277,4.4286,4.4344,4.4361,4.4367,4.4426,4.439,4.4393,4.4395,4.4397,4.4514,4.4515,0,0,0,0,0,0,4.4114,4.4127,4.4233,4.4238,4.4173,4.423,4.424,4.4265,4.4311,4.4318,4.4287,4.4287,4.4356,4.4363,4.437,4.4417,4.4394,4.4397,4.4399,4.4514,4.4515,4.4516,0,0,0,0,0,0,4.411,4.4123,4.423,4.4183,4.4197,4.4233,4.4261,4.4267,4.4284,4.432,4.4326,4.4298,4.4355,4.4364,4.4406,4.442,4.4399,4.4402,4.4512,4.4514,4.4515,4.4513,0,0,0,0,0,0,4.4106,4.4122,4.4139,4.4183,4.4199,4.4267,4.4262,4.4269,4.4291,4.4292,4.4332,4.4338,4.4355,4.44,4.4409,4.4424,4.4405,4.4511,4.4513,4.4515,4.4512,4.4514,4.4516,0,0,0,0,0,4.4101,4.4135,4.414,4.4153,4.4223,4.4268,4.4277,4.4298,4.4293,4.4309,4.4331,4.4337,4.4417,4.4404,4.4415,4.4431,4.4511,4.4513,4.4515,4.4511,4.4514,4.4516,0,0,0,0,0,0,4.409,4.4141,4.4148,4.4197,4.4229,4.4271,4.4293,4.4301,4.4333,4.4331,4.4354,4.4363,4.4402,4.4421,4.4406,4.447,4.4463,4.4467,4.4457,4.4459,4.4461,4.4455,4.4408,0,0,0,0,0,4.4093,4.4129,4.4171,4.421,4.4226,4.4256,4.4277,4.4291,4.4323,4.4335,4.4361,4.439,4.4421,4.4441,4.4473,4.4515,4.4522,4.4531,4.4533,4.4534,4.4537,4.4558,4.4562,4.4522,4.4522,4.4522,0,0,4.41,4.4133,4.4154,4.4209,4.4234,4.4267,4.4267,4.4303,4.4327,4.434,4.4381,4.44,4.4433,4.4475,4.4494,4.4491,4.455,4.4537,4.4538,4.454,4.456,4.4564,4.4567,4.4524,4.4523,4.4523,0,0,4.413,4.416,4.4195,4.422,4.426,4.428,4.4288,4.4329,4.4343,4.4385,4.4395,4.4421,4.4476,4.4499,4.4517,4.4553,4.4558,4.4562,4.4572,4.4592,4.4595,4.4598,4.4608,4.4612,4.4565,4.4565,4.4565,0,4.4133,4.4187,4.4211,4.4246,4.4268,4.4284,4.4317,4.434,4.4387,4.44,4.4397,4.4464,4.4488,4.4533,4.4542,4.4557,4.4565,4.4557,4.4593,4.4596,4.4599,4.4609,4.4613,4.4565,4.4565,4.4565,4.4565,0,4.4187,4.4223,4.4246,4.4293,4.4318,4.4352,4.4378,4.44,4.441,4.4429,4.4469,4.4498,4.4534,4.4546,4.4557,4.4592,4.4589,4.4589,4.4582,4.4603,4.4612,4.4617,4.4565,4.4565,4.4565,4.4565,0,0,4.4213,4.4271,4.4279,4.4299,4.4343,4.437,4.4402,4.444,4.4457,4.4487,4.4513,4.4558,4.4558,4.4579,4.4592,4.461,4.4633,4.4607,4.4608,4.461,4.467,4.4669,4.4674,4.4637,4.4637,4.4638,4.4667,0,4.4246,4.4309,4.433,4.438,4.4412,4.4426,4.4454,4.4482,4.45,4.4527,4.4546,4.4577,4.4576,4.4588,4.4606,4.4626,4.4645,4.4625,4.4658,4.4659,4.4649,4.4679,4.4678,4.4704,4.4671,4.4672,4.4672,0,4.4294,4.4327,4.4381,4.4418,4.4432,4.4458,4.4492,4.4519,4.455,4.4561,4.4584,4.4595,4.4626,4.4618,4.466,4.4645,4.466,4.4672,4.4673,4.4676,4.4666,4.4681,4.4713,4.4717,4.4679,4.4679,4.4678,0,4.4304,4.4362,4.4401,4.4418,4.4464,4.4481,4.45,4.453,4.455,4.4579,4.4591,4.4623,4.4639,4.4662,4.468,4.4673,4.4719,4.4713,4.4727,4.4727,4.4736,4.4735,4.4769,4.4748,4.4748,4.4748,4.4747,0,4.4339,4.4371,4.4406,4.443,4.4465,4.4488,4.4521,4.454,4.4566,4.4592,4.4605,4.4628,4.4651,4.4676,4.469,4.4721,4.4729,4.4737,4.474,4.4735,4.4734,4.4745,4.4743,4.4749,4.4748,4.4748,4.4748,0,4.4356,4.4382,4.4425,4.4465,4.4475,4.4499,4.4531,4.4553,4.4571,4.4603,4.4611,4.4639,4.4669,4.4689,4.4727,4.4737,4.477,4.4773,4.476,4.4761,4.4774,4.4772,4.4815,4.4821,4.4796,4.4797,4.4797,0,4.4376,4.4401,4.4443,4.4462,4.4482,4.4512,4.4533,4.4555,4.4576,4.4611,4.4628,4.4659,4.4686,4.4732,4.4754,4.4782,4.4786,4.4799,4.479,4.4783,4.4784,4.4782,4.4783,4.48,4.48,4.48,4.48,0,4.4407,4.4418,4.4449,4.4484,4.4508,4.4536,4.4564,4.4578,4.4604,4.4626,4.4658,4.4678,4.4717,4.4747,4.4777,4.4794,4.48,4.4803,4.4807,4.4802,4.4793,4.4796,4.4762,4.4802,4.4802,4.4801,4.4801,4.4801,4.4425,4.4447,4.448,4.4513,4.4536,4.4561,4.4583,4.4604,4.4632,4.4667,4.4678,4.471,4.4737,4.4779,4.4796,4.4819,4.4818,4.4825,4.4826,4.4827,4.4826,4.479,4.4825,4.4825,4.4825,4.4825,4.4825,0,4.4456,4.4477,4.4508,4.4546,4.4571,4.4578,4.4608,4.4627,4.4656,4.4682,4.4708,4.4743,4.4771,4.4795,4.4824,4.4838,4.4842,4.4845,4.4843,4.4846,4.4827,4.4819,4.4841,4.4841,4.4841,4.4841,4.4841,4.4841,4.4474,4.4511,4.4526,4.4573,4.4593,4.4627,4.4643,4.4665,4.4686,4.4725,4.475,4.4766,4.479,4.482,4.4845,4.4851,4.486,4.4863,4.4869,4.485,4.4848,4.4846,4.4839,4.4865,4.4865,4.4886,4.4887,4.4887]}]]